Waarnemingen

Advertentie
Mijn weer
Berus, Duitsland (10704): temperatuur & dauwpunt: 16.11.2017 08:00:00 - 22.11.2017 08:00:00 (CET)Berus, Duitsland (10704): temperatuur 5cm & temperatuur -5cm: 16.11.2017 08:00:00 - 22.11.2017 08:00:00 (CET)Berus, Duitsland (10704): temperatuur -20cm & temperatuur -100cm: 16.11.2017 08:00:00 - 22.11.2017 08:00:00 (CET)Berus, Duitsland (10704): windsnelheid & windstoten: 16.11.2017 08:00:00 - 22.11.2017 08:00:00 (CET)Berus, Duitsland (10704): windrichting: 16.11.2017 08:00:00 - 22.11.2017 08:00:00 (CET)Berus, Duitsland (10704): luchtdruk: 16.11.2017 08:00:00 - 22.11.2017 08:00:00 (CET)Berus, Duitsland (10704): zicht: 16.11.2017 08:00:00 - 22.11.2017 08:00:00 (CET)Berus, Duitsland (10704): Zonneschijnduur: 16.11.2017 08:00:00 - 22.11.2017 08:00:00 (CET)Berus, Duitsland (10704): neerslag: 16.11.2017 08:00:00 - 22.11.2017 08:00:00 (CET)
Datum & Tijd tt [°C] td [°C] tt 5cm [°C] tt -5cm [°C] tt -20cm [°C] tt -100cm [°C] ff [km/u] ff [kn] fx [km/u] fx [kn] dd ppp [hPa] vv [km] sd [min] rr [mm]
22.11.2017 08:00:00 5,4 5,1 5,2 5,3 5,9 9,0 10 6 23 13 ZW 1014,1 4,2 0 0,0
22.11.2017 07:00:00 5,6 5,1 5,2 5,2 5,9 9,0 18 10 26 14 ZW 1014,0 4,7 0 0,0
22.11.2017 06:00:00 5,5 4,9 4,7 5,6 5,9 9,0 18 10 23 12 ZZW 1014,2 6 0 0,0
22.11.2017 05:00:00 6,2 5,3 5,9 5,8 5,9 9,0 16 8 23 12 ZW 1014,4 9 0 0,0
22.11.2017 04:00:00 6,3 5,3 6,0 5,8 5,9 9,0 16 9 26 14 ZW 1015,1 11 0 0,0
22.11.2017 03:00:00 6,2 5,2 5,9 5,8 5,9 9,0 17 9 26 14 ZW 1015,2 12 0 0,0
22.11.2017 02:00:00 6,4 5,5 6,1 5,8 5,9 9,0 18 10 29 15 ZW 1015,3 13 0 0,0
22.11.2017 01:00:00 6,5 5,9 6,2 5,8 5,9 9,0 20 11 34 18 ZW 1015,7 7 0 0,0
22.11.2017 00:00:00 6,4 5,8 6,2 5,7 5,9 9,0 16 9 22 12 WZW 1015,9 8 0 0,0
21.11.2017 23:00:00 6,2 5,6 5,9 5,6 5,9 9,0 14 7 24 13 ZW 1016,1 10 0 0,0
21.11.2017 22:00:00 6,0 5,2 5,7 5,6 5,9 9,0 18 10 24 13 ZW 1016,2 15 0 0,0
21.11.2017 21:00:00 5,8 5,0 5,5 5,6 5,9 9,0 16 9 30 16 ZW 1016,3 12 0 0,0
21.11.2017 20:00:00 6,2 5,0 5,6 5,8 5,9 9,0 20 11 34 18 WZW 1016,8 17 0 0,0
21.11.2017 19:00:00 5,9 5,4 5,6 5,9 5,9 9,0 21 11 34 19 WZW 1017,1 13 0 0,0
21.11.2017 18:00:00 5,9 5,6 5,7 6,0 5,9 9,1 23 12 36 19 ZW 1017,0 4,0 0 0,0
21.11.2017 17:00:00 6,0 5,3 5,8 6,1 5,8 9,1 20 11 41 22 WZW 1017,2 13 0 0,0
21.11.2017 16:00:00 6,2 5,4 6,0 6,3 5,7 9,1 26 14 40 22 WZW 1016,9 13 0 0,0
21.11.2017 15:00:00 6,2 5,4 6,2 6,4 5,7 9,1 25 14 37 20 ZW 1017,2 14 0 0,0
21.11.2017 14:00:00 6,2 5,6 6,2 6,3 5,6 9,1 24 13 39 21 ZW 1017,6 11 0 0,0
21.11.2017 13:00:00 6,1 5,8 6,3 6,2 5,5 9,1 29 15 43 23 ZW 1017,7 8 0 0,0
21.11.2017 12:00:00 6,2 6,1 6,2 6,0 5,5 9,1 25 14 42 23 ZW 1018,2 0,9 0 0,0
21.11.2017 11:00:00 6,1 6,0 6,1 5,9 5,4 9,1 27 15 45 24 ZW 1018,5 0,2 0 0,1
21.11.2017 10:00:00 6,1 6,1 6,1 5,8 5,3 9,1 30 16 48 26 ZW 1018,0 0,1 0 0,6
21.11.2017 09:00:00 6,2 6,2 6,0 5,7 5,3 9,1 28 15 47 26 ZW 1017,9 0,3 0 2,1
21.11.2017 08:00:00 6,3 6,3 6,1 5,6 5,2 9,2 30 16 44 24 ZW 1017,6 1,1 0 0,7
21.11.2017 07:00:00 6,3 6,3 6,2 5,5 5,1 9,2 27 15 46 25 ZW 1017,4 0,4 0 0,7
21.11.2017 06:00:00 6,3 6,3 6,1 5,4 5,0 9,2 26 14 44 24 ZW 1017,4 0,2 0 1,0
21.11.2017 05:00:00 6,2 6,1 6,0 5,3 5,0 9,2 28 15 42 23 ZW 1017,3 1,5 0 0,0
21.11.2017 04:00:00 6,1 6,0 5,9 5,2 4,9 9,2 29 16 49 26 ZW 1017,3 4,6 0 0,1
21.11.2017 03:00:00 6,0 6,0 5,8 5,1 4,8 9,2 26 14 47 25 ZW 1017,7 0,4 0 0,0
21.11.2017 02:00:00 5,9 5,9 5,8 4,9 4,7 9,2 30 16 43 23 ZW 1017,7 2,9 0 0,0
21.11.2017 01:00:00 5,8 5,7 5,7 4,8 4,6 9,2 32 17 48 26 ZW 1017,9 3,6 0 0,5
21.11.2017 00:00:00 5,6 5,6 5,4 4,6 4,6 9,2 33 18 49 27 ZW 1017,5 1,8 0 2,1
20.11.2017 23:00:00 5,1 5,0 5,0 4,4 4,5 9,2 33 18 50 27 ZW 1017,9 0,2 0 1,4
20.11.2017 22:00:00 5,0 5,0 4,7 4,2 4,4 9,2 26 14 48 26 ZW 1018,0 2,0 0 0,8
20.11.2017 21:00:00 4,7 4,7 4,6 4,0 4,4 9,2 27 14 38 21 ZW 1018,5 0,1 0 0,6
20.11.2017 20:00:00 4,4 4,2 4,2 3,8 4,3 9,2 27 14 46 25 ZW 1018,5 1,9 0 0,0
20.11.2017 19:00:00 4,1 4,0 4,0 3,7 4,3 9,2 24 13 39 21 ZW 1018,9 2,8 0 0,1
20.11.2017 18:00:00 3,7 3,3 3,5 3,5 4,3 9,2 30 16 43 23 ZW 1019,3 3,1 0 0,0
20.11.2017 17:00:00 3,1 2,8 2,9 3,5 4,2 9,2 28 15 37 20 ZW 1019,8 4,0 0 0,1
20.11.2017 16:00:00 3,0 1,8 2,8 3,6 4,1 9,3 27 15 39 21 ZZW 1020,3 7 0 0,0
20.11.2017 15:00:00 3,0 0,9 2,9 3,8 4,0 9,3 23 13 33 18 ZZW 1021,0 12 0 0,0
20.11.2017 14:00:00 3,4 0,7 3,6 3,9 3,9 9,3 22 12 36 20 ZW 1021,7 23 0 0,0
20.11.2017 13:00:00 3,6 0,6 4,1 3,4 3,8 9,3 21 11 29 16 ZW 1022,2 24 0 0,0
20.11.2017 12:00:00 2,8 0,5 3,2 2,4 3,8 9,3 22 12 30 16 ZW 1023,3 20 0 0,0
20.11.2017 11:00:00 1,7 0,4 1,7 1,5 3,8 9,3 18 10 28 15 ZW 1024,5 20 0 0,0
20.11.2017 10:00:00 1,1 -0,1 0,7 1,2 3,9 9,3 16 9 22 12 ZW 1024,8 17 0 0,0
20.11.2017 09:00:00 0,2 -0,2 0,0 1,2 4,0 9,3 11 6 16 8 ZW 1024,7 7 0 0,0
20.11.2017 08:00:00 0,0 -0,3 -0,3 1,2 4,0 9,3 12 6 17 9 ZW 1024,6 5 0 0,0
20.11.2017 07:00:00 0,0 -0,5 -0,3 1,2 4,1 9,3 13 7 24 13 ZW 1024,6 6 0 0,0
20.11.2017 06:00:00 -0,1 -0,5 -0,6 1,3 4,2 9,3 14 8 21 11 ZW 1024,4 6 0 0,0
20.11.2017 05:00:00 -0,2 -0,5 -0,9 1,3 4,3 9,3 14 8 20 11 WZW 1025,0 7 0 0,0
20.11.2017 04:00:00 0,3 -0,1 -0,3 1,3 4,5 9,3 15 8 22 12 WZW 1024,9 8 0 0,0
20.11.2017 03:00:00 0,2 -0,3 -0,6 1,4 4,6 9,3 16 8 21 12 WZW 1025,3 7 0 0,0
20.11.2017 02:00:00 0,1 -0,3 -0,9 1,4 4,8 9,3 13 7 19 10 WZW 1025,4 7 0 0,0
20.11.2017 01:00:00 0,7 0,0 -0,6 1,4 5,0 9,3 13 7 18 10 W 1025,5 12 0 0,0
20.11.2017 00:00:00 0,9 0,0 -0,5 1,7 5,1 9,3 12 6 21 12 W 1025,7 16 0 0,0
19.11.2017 23:00:00 1,5 0,1 0,2 2,0 5,3 9,3 14 8 27 14 W 1025,5 26 0 0,0
19.11.2017 22:00:00 1,7 0,1 0,3 2,4 5,5 9,3 16 8 28 15 W 1025,3 32 0 0,0
19.11.2017 21:00:00 2,2 0,0 1,0 2,9 5,7 9,3 19 10 26 14 W 1024,8 48 0 0,0
19.11.2017 20:00:00 2,7 0,0 1,5 3,6 5,8 9,3 18 10 32 17 W 1024,4 54 0 0,0
19.11.2017 19:00:00 3,3 0,4 2,2 4,4 5,9 9,3 18 10 30 16 WZW 1023,5 51 0 0,0
19.11.2017 18:00:00 4,4 0,7 3,8 5,1 5,9 9,3 18 10 27 14 WZW 1022,7 70 0 0,0
19.11.2017 17:00:00 5,0 0,5 4,3 5,7 5,9 9,3 16 9 26 14 WZW 1022,3 70 0 0,0
19.11.2017 16:00:00 5,2 0,9 4,7 6,6 5,7 9,3 14 8 24 13 WZW 1022,0 70 0 0,0
19.11.2017 15:00:00 6,0 0,4 6,4 7,4 5,5 9,3 13 7 29 16 W 1021,7 70 23 0,0
19.11.2017 14:00:00 6,2 0,8 7,0 7,0 5,3 9,4 15 8 34 19 W 1021,5 70 7 0,0
19.11.2017 13:00:00 5,6 0,7 6,4 6,8 5,1 9,4 15 8 30 16 W 1021,4 70 28 0,0
19.11.2017 12:00:00 6,3 1,2 8,5 6,0 5,0 9,4 16 8 29 16 W 1021,2 45 60 0,0
19.11.2017 11:00:00 5,0 1,0 6,7 4,4 5,0 9,4 14 7 29 15 W 1021,2 45 60 0,0
19.11.2017 10:00:00 4,1 1,1 4,8 3,0 5,1 9,4 13 7 26 14 W 1020,8 46 60 0,0
19.11.2017 09:00:00 2,8 1,2 1,6 2,6 5,2 9,4 16 8 26 14 W 1020,3 36 7 0,0
19.11.2017 08:00:00 2,7 1,0 1,0 2,9 5,3 9,4 14 8 25 13 W 1019,5 35 0 0,0
19.11.2017 07:00:00 3,4 1,2 1,7 3,6 5,3 9,4 16 9 30 16 WNW 1018,8 41 0 0,0
19.11.2017 06:00:00 4,3 3,7 3,3 4,4 5,3 9,4 14 7 31 17 W 1018,1 11 0 0,0
19.11.2017 05:00:00 4,6 4,5 4,5 4,5 5,3 9,4 17 9 36 19 W 1017,5 6 0 0,1
19.11.2017 04:00:00 4,5 4,3 4,4 4,4 5,3 9,4 27 14 41 22 WZW 1017,2 4,0 0 0,2
19.11.2017 03:00:00 4,1 4,0 4,0 4,2 5,3 9,4 26 14 47 26 WZW 1017,4 4,8 0 0,6
19.11.2017 02:00:00 3,9 3,8 3,8 4,1 5,4 9,4 31 17 48 26 ZW 1017,7 2,1 0 0,5
19.11.2017 01:00:00 3,6 3,5 3,5 4,0 5,4 9,4 38 20 55 30 ZW 1018,4 1,0 0 1,9
19.11.2017 00:00:00 3,3 3,2 3,2 3,9 5,5 9,4 26 14 47 26 ZW 1019,9 1,0 0 1,7
18.11.2017 23:00:00 3,3 2,7 3,0 3,9 5,5 9,4 29 16 42 23 ZW 1020,2 4,4 0 0,2
18.11.2017 22:00:00 3,3 2,1 2,9 3,8 5,6 9,4 25 13 36 20 ZW 1021,2 9 0 0,0
18.11.2017 21:00:00 3,1 1,6 2,9 3,8 5,7 9,4 26 14 39 21 ZW 1021,8 9 0 0,0
18.11.2017 20:00:00 2,9 1,1 2,5 3,8 5,8 9,4 23 12 32 18 ZW 1022,2 13 0 0,0
18.11.2017 19:00:00 3,3 1,3 2,9 4,4 5,9 9,4 23 12 33 18 ZW 1022,5 13 0 0,0
18.11.2017 18:00:00 3,6 1,3 3,3 4,7 6,0 9,4 21 11 33 18 WZW 1022,9 16 0 0,0
18.11.2017 17:00:00 3,7 1,2 3,5 5,1 6,0 9,4 20 11 32 17 WZW 1022,9 19 0 0,0
18.11.2017 16:00:00 4,0 0,9 3,9 5,6 5,9 9,4 21 11 36 19 WZW 1023,1 24 0 0,0
18.11.2017 15:00:00 4,1 0,6 4,1 6,2 5,9 9,4 23 12 37 20 WZW 1023,4 27 0 0,0
18.11.2017 14:00:00 4,0 0,7 4,3 6,9 5,7 9,4 24 13 38 21 ZW 1023,4 24 11 0,0
18.11.2017 13:00:00 4,4 2,0 6,0 6,5 5,6 9,5 22 12 28 15 ZW 1023,9 10 17 0,0
18.11.2017 12:00:00 3,3 1,7 4,1 6,3 5,5 9,5 13 7 22 12 WZW 1025,4 8 4 0,0
18.11.2017 11:00:00 3,7 2,0 5,0 5,4 5,4 9,5 8 4 19 10 W 1025,6 7 21 0,0
18.11.2017 10:00:00 2,8 2,3 2,9 4,5 5,5 9,5 11 6 22 12 W 1025,5 3,6 0 0,0
18.11.2017 09:00:00 2,6 2,3 2,7 4,1 5,5 9,5 12 6 20 11 W 1025,7 2,3 0 0,0
18.11.2017 08:00:00 3,0 2,8 2,6 4,3 5,5 9,5 9 5 14 8 W 1025,0 1,0 0 0,0
18.11.2017 07:00:00 3,5 3,2 3,4 4,3 5,6 9,5 9 5 15 8 WNW 1024,9 1,5 0 0,0
18.11.2017 06:00:00 3,8 3,2 3,5 4,3 5,7 9,5 6 4 15 8 WNW 1024,8 6 0 0,0
18.11.2017 05:00:00 3,8 3,5 3,3 4,2 5,7 9,5 4 2 14 7 NW 1025,0 4,6 0 0,0
18.11.2017 04:00:00 3,8 3,5 2,9 4,8 5,7 9,5 9 5 15 8 WNW 1025,3 4,5 0 0,0
18.11.2017 03:00:00 4,4 4,3 4,0 5,0 5,8 9,5 6 3 11 6 WNW 1025,9 1,5 0 0,0
18.11.2017 02:00:00 4,6 4,5 4,4 5,1 5,8 9,5 4 2 14 7 W 1025,8 1,8 0 0,0
18.11.2017 01:00:00 4,6 4,6 4,5 5,1 5,8 9,5 9 5 14 8 WNW 1026,1 0,1 0 0,0
18.11.2017 00:00:00 4,4 4,3 4,4 5,2 5,8 9,5 9 5 11 6 W 1026,2 0,1 0 0,0
17.11.2017 23:00:00 4,8 4,6 4,7 5,3 5,8 9,6 7 4 15 8 W 1026,4 0,1 0 0,0
17.11.2017 22:00:00 4,9 4,8 4,7 5,4 5,8 9,6 8 4 14 8 WNW 1026,8 0,4 0 0,0
17.11.2017 21:00:00 4,9 4,6 4,6 5,4 5,9 9,6 5 3 8 4 ZW 1026,6 1,7 0 0,0
17.11.2017 20:00:00 5,2 5,1 5,0 5,5 5,9 9,6 0 0 8 5 N 1026,8 0,9 0 0,0
17.11.2017 19:00:00 5,1 5,0 4,9 5,6 5,9 9,6 2 1 5 3 O 1026,7 0,2 0 0,0
17.11.2017 18:00:00 5,3 5,1 4,1 6,0 5,8 9,6 3 2 6 4 ZW 1026,8 1,9 0 0,0
17.11.2017 17:00:00 5,4 5,2 4,9 6,7 5,7 9,6 6 3 11 6 ZZO 1026,6 0,5 0 0,0
17.11.2017 16:00:00 5,8 5,3 6,1 7,2 5,5 9,6 6 3 9 5 NNW 1027,0 4,0 0 0,0
17.11.2017 15:00:00 5,7 5,2 6,3 7,2 5,3 9,6 4 2 8 4 N 1026,9 3,0 0 0,0
17.11.2017 14:00:00 5,4 4,9 6,0 7,2 5,0 9,6 2 1 8 4 NO 1027,1 2,4 0 0,0
17.11.2017 13:00:00 5,2 4,7 6,4 6,8 4,8 9,6 4 2 6 4 NO 1027,4 2,4 0 0,0
17.11.2017 12:00:00 4,6 4,1 5,8 5,7 4,7 9,6 0 0 5 3 N 1027,7 0,7 0 0,0
17.11.2017 11:00:00 3,3 3,1 3,9 4,4 4,6 9,7 1 1 5 3 NNW 1028,3 2,7 0 0,2
17.11.2017 10:00:00 2,6 2,4 2,9 3,8 4,6 9,7 4 2 6 3 W 1028,1 0,2 0 0,7
17.11.2017 09:00:00 2,3 2,2 2,6 3,4 4,6 9,7 1 1 6 4 NW 1028,0 0,7 0 0,0
17.11.2017 08:00:00 1,8 1,8 1,8 3,2 4,6 9,7 6 3 11 6 W 1027,5 0,1 0 0,0
17.11.2017 07:00:00 1,6 1,6 1,8 3,2 4,6 9,7 5 3 9 5 W 1027,4 0,1 0 0,0
17.11.2017 06:00:00 1,6 1,6 1,7 3,2 4,6 9,7 7 4 11 6 WZW 1027,2 0,1 0 0,0
17.11.2017 05:00:00 1,5 1,3 1,6 3,2 4,6 9,7 5 3 9 5 ZW 1027,3 0,1 0 0,1
17.11.2017 04:00:00 1,5 1,5 1,6 3,2 4,7 9,7 6 4 9 5 ZW 1027,2 0,1 0 0,0
17.11.2017 03:00:00 1,4 1,3 1,5 3,2 4,7 9,7 6 4 13 7 ZW 1027,1 0,1 0 0,0
17.11.2017 02:00:00 1,2 1,1 1,3 3,2 4,7 9,7 11 6 18 10 ZZW 1026,9 0,1 0 0,0
17.11.2017 01:00:00 1,2 1,1 1,3 3,3 4,7 9,7 8 4 13 7 ZW 1027,4 0,1 0 0,0
17.11.2017 00:00:00 1,3 1,0 1,5 3,3 4,8 9,7 7 4 12 7 WZW 1027,4 0,1 0 0,0
16.11.2017 23:00:00 1,4 1,2 1,6 3,3 4,8 9,8 4 2 15 8 Z 1027,3 0,2 0 0,0
16.11.2017 22:00:00 1,4 1,4 1,5 3,4 4,8 9,8 7 4 12 6 ZW 1027,2 0,2 0 0,0
16.11.2017 21:00:00 1,3 1,2 1,5 3,5 4,8 9,8 8 4 11 6 ZW 1027,1 0,2 0 0,0
16.11.2017 20:00:00 1,3 1,2 1,4 3,6 4,9 9,8 5 3 11 6 ZW 1026,8 0,1 0 0,0
16.11.2017 19:00:00 1,5 1,3 1,7 3,8 4,9 9,8 3 1 7 4 Z 1026,4 0,1 0 0,0
16.11.2017 18:00:00 1,5 1,4 1,6 3,9 4,8 9,8 5 3 9 5 ZZW 1026,3 0,2 0 0,0
16.11.2017 17:00:00 1,4 1,3 1,7 4,2 4,8 9,8 3 2 11 6 ZZO 1026,0 0,1 0 0,0
16.11.2017 16:00:00 1,8 1,6 2,2 4,5 4,7 9,8 4 2 7 4 ZZW 1025,7 0,2 0 0,0
16.11.2017 15:00:00 1,8 1,4 2,3 4,6 4,6 9,8 3 2 8 4 OZO 1025,9 0,6 0 0,0
16.11.2017 14:00:00 1,9 1,4 2,6 4,5 4,4 9,8 3 2 9 5 ONO 1025,9 1,6 0 0,0
16.11.2017 13:00:00 1,9 1,7 2,6 4,3 4,3 9,8 7 4 13 7 O 1025,8 2,4 0 0,0
16.11.2017 12:00:00 1,6 1,4 2,4 3,8 4,2 9,8 8 4 13 7 NO 1026,6 0,3 0 0,0
16.11.2017 11:00:00 1,1 0,9 1,9 3,0 4,2 9,8 7 4 18 10 NO 1026,9 0,2 0 0,0
16.11.2017 10:00:00 0,8 0,8 1,2 2,6 4,2 9,9 12 7 20 11 ONO 1025,8 0,1 0 0,0
16.11.2017 09:00:00 1,0 0,9 1,2 2,2 4,2 9,9 11 6 21 12 ONO 1026,0 0,1 0 0,0
16.11.2017 08:00:00 0,9 0,8 0,9 1,8 4,2 9,9 13 7 20 11 ONO 1025,7 0,1 0 0,0

tt = temperatuur
td = dauwpunt
tt 5cm = temperatuur 5cm
tt -5cm = temperatuur -5cm
tt -20cm = temperatuur -20cm
tt -100cm = temperatuur -100cm
ff = windsnelheid
fx = windstoten
dd = windrichting
ppp = luchtdruk
vv = zicht
sd = Zonneschijnduur
rr = neerslag

Weerstations in de omgeving